Location: ??????????
(41.1822°N, 22.9220°E)
Time: 12:22:18
(UTC+00:00)

Daily predictions for brighter satellites

Satellite Brightness Start Highest point End
(mag) Time Altitude Azimuth Time Altitude Azimuth Time Altitude Azimuth
Cosmos 2061 Rocket 4.1 17:01:38 10° S 17:08:02 80° E 17:14:30 10° N
USA 59 Rocket 1.1 17:04:30 10° NNW 17:08:05 32° NE 17:12:50 10° ESE
SAR-Lupe-2 4.2 17:05:26 10° SE 17:08:45 37° ENE 17:12:04 10° N
Landsat 7 3.8 17:04:36 10° SSE 17:09:17 90° SW 17:14:01 10° NNW
BREEZE-M DEB (TANK) 3.2 17:07:49 10° W 17:10:03 33° NNW 17:12:03 10° NE
COSMOS 2428 2.7 17:05:35 10° S 17:11:12 65° ESE 17:16:52 10° NNE
Meteor PRIRODA 4.3 17:11:38 10° SE 17:14:30 28° ENE 17:17:23 10° N
ATLAS 3B R/B 4.2 17:08:36 10° NW 17:15:55 44° WSW 17:23:00 10° S
Cosmos 1536 4.1 17:14:23 10° SE 17:17:00 18° E 17:19:37 10° NE
Cosmos 1818 4.4 17:12:29 10° SW 17:17:50 56° NW 17:23:14 10° NNE
Cosmos 2292 Rocket 3.9 17:14:28 10° NNW 17:17:52 48° W 17:20:46 10° SSW
Cosmos 1842 4.2 17:16:35 10° NNE 17:19:32 23° ENE 17:22:29 10° SE
Okean O Rocket 3.5 17:20:23 10° E 17:22:26 13° ENE 17:24:29 10° NE
Cosmos 1707 3.8 17:20:48 10° NNE 17:23:35 21° ENE 17:26:02 11° ESE
CZ-4B DEB 4.5 17:20:10 10° SE 17:25:26 48° ENE 17:30:42 10° N
Cosmos 2278 Rocket 3.0 17:20:56 10° N 17:26:03 34° ENE 17:30:47 12° ESE
Tsikada Rocket 4.2 17:19:45 10° N 17:26:05 85° W 17:32:26 10° S
Meteor 2-4 Rocket 4.1 17:20:12 10° NNW 17:26:08 75° W 17:31:56 10° S
NOSS 2-1 (C) 4.0 17:24:32 10° NNW 17:28:23 47° NE 17:33:19 11° SE
DMSP B5D1-3 4.5 17:24:51 10° NNE 17:29:57 87° ESE 17:35:01 10° SSW
CZ-4B R/B 4.0 17:25:25 10° SE 17:30:07 30° ENE 17:34:44 10° N
CZ-4 R/B 1.8 17:29:20 10° SE 17:32:52 38° ENE 17:36:28 10° N
Cosmos 1626 4.5 17:30:58 10° NW 17:33:20 21° W 17:35:41 10° SW
Cosmos 1766 Rocket 3.5 17:30:41 10° S 17:34:59 70° E 17:39:22 10° NNE
ADEOS 3.5 17:30:32 10° SSE 17:35:42 73° ENE 17:40:55 10° N
Cosmos 44 Rocket 3.7 17:31:10 10° NW 17:35:49 60° WSW 17:40:23 10° SSE
Resurs 01 Rocket 2.4 17:32:51 11° SE 17:36:28 31° ENE 17:40:22 10° N
TSX-5 3.1 17:33:32 10° NNW 17:36:40 83° ENE 17:40:04 10° SSE
GEOS 3 Rocket 4.1 17:32:35 13° ESE 17:36:54 43° NE 17:41:46 10° NNW
USA 306 4.4 17:34:54 10° W 17:37:24 23° NNW 17:40:15 10° NNE
YAOGAN 1 3.7 17:35:08 10° S 17:39:14 46° W 17:43:22 10° NNW
CZ-4B R/B 3.3 17:34:43 10° SSE 17:39:26 79° ENE 17:44:15 10° NNW
Cosmos 1814 Rocket 4.0 17:34:08 10° SSW 17:39:27 88° WNW 17:44:44 10° NNE
NOSS 3-3 (A) 4.3 17:35:25 10° S 17:39:54 30° ESE 17:44:54 10° NE
Helios 1A 2.8 17:38:38 10° NNE 17:42:42 73° ESE 17:46:44 10° S
USA 290 2.7 17:42:46 10° N 17:45:55 42° ENE 17:47:32 23° SE
Okean-O 4.5 17:45:38 13° ENE 17:46:07 13° ENE 17:48:12 10° NE
Cosmos 1743 4.3 17:43:16 10° SW 17:46:33 35° WNW 17:49:51 10° N
USA 186 2.5 17:45:12 22° ESE 17:46:37 34° ENE 17:49:35 10° N
SPOT 1/Viking Rocket 3.5 17:41:49 10° SSE 17:47:00 88° E 17:52:12 10° NNW
Cosmos 1408 Rocket 4.4 17:46:07 13° SE 17:49:15 28° E 17:53:01 10° NNE
Cosmos 2237 Rocket 2.3 17:45:00 10° S 17:50:26 53° ESE 17:55:53 10° NNE
KORONAS-FOTON 3.6 17:46:52 10° N 17:50:32 64° E 17:54:01 11° SSE
CZ-4B R/B 2.7 17:49:19 11° SSE 17:52:58 66° ENE 17:56:57 10° N
CSL-04 Rocket 4.0 17:50:07 16° SE 17:54:03 42° ENE 17:59:03 10° N
ISS -3.3 17:51:35 10° WSW 17:54:54 61° NNW 17:57:45 14° NE
Cosmos 2219 Rocket 4.5 17:50:41 10° WSW 17:55:25 27° NW 18:00:11 10° N
SL-08 R/B 3.9 17:51:43 10° N 17:56:36 63° WNW 18:01:26 10° SSW
Meteor 1-14 Rocket 4.2 17:52:58 10° S 17:58:30 89° W 18:04:05 10° N
Meteor 1-11 Rocket 3.9 17:56:15 10° SSE 18:01:38 49° E 18:06:59 10° NNE
NOSS 2-1 (E) 3.8 18:01:30 10° NW 18:05:39 85° SW 18:09:34 20° SSE
Cosmos 1328 Rocket 4.0 18:01:56 10° NNW 18:06:10 61° W 18:10:24 10° S
Cosmos 1356 Rocket 3.3 18:04:53 10° N 18:09:05 79° E 18:11:51 20° SSE
SJ-6B 3.7 18:05:36 10° S 18:09:05 45° W 18:12:33 10° NNW
Cosmos 1674 3.8 18:06:13 10° NNW 18:09:21 38° W 18:12:25 10° SSW
Cosmos 158 Rocket 3.8 18:04:50 10° S 18:09:35 54° ESE 18:14:20 10° NNE
Lacrosse 4 Rocket 3.3 18:06:47 10° NW 18:10:33 30° WSW 18:14:16 10° S
CARTOSAT-1 3.4 18:09:13 21° SSE 18:11:58 75° ENE 18:16:14 10° N
NOSS 2-1 (D) 4.0 18:09:12 10° NW 18:13:18 69° WSW 18:17:05 20° SSE
ATLAS CENTAUR R/B 0.8 18:11:23 10° SSW 18:14:52 87° ESE 18:18:33 10° NNE
Cosmos 1805 Rocket 4.2 18:15:48 33° ENE 18:15:48 33° ENE 18:19:13 10° NNE
Meteor 1-4 Rocket 3.3 18:14:24 10° NNW 18:16:53 35° W 18:18:11 21° SSW
ARGOS Delta rocket 4.4 18:13:49 10° S 18:18:53 62° W 18:23:42 10° NNW
Cosmos 1980 3.7 18:14:15 10° SSW 18:19:55 82° WNW 18:25:39 10° NNE
In-Cosmos 22 4.1 18:15:33 10° N 18:21:13 69° E 18:24:24 26° SSE
Cosmos 2369 Rocket 4.1 18:19:38 10° NNE 18:22:38 14° NE 18:23:25 14° NE
Cosmos 1733 3.0 18:19:37 10° SSW 18:23:03 74° W 18:26:29 10° N
ACS3 Solar Sail 1.9 18:24:20 28° SE 18:27:47 62° ENE 18:34:05 10° N
CSL-04 Debris 4.1 18:26:01 20° SSE 18:29:51 87° WSW 18:35:22 10° NNW
SWARM A 4.2 18:29:55 73° S 18:30:14 88° W 18:33:46 10° N
Cosmos 1943 Rocket 2.0 18:25:09 10° NNW 18:30:41 72° ENE 18:32:34 42° SE
Sich 1 3.0 18:30:57 56° E 18:30:57 56° E 18:35:00 10° NNE
USA 276 3.4 18:28:35 10° NW 18:30:24 30° NNW 18:30:24 30° NNW
Nadezhda 4 Rocket 3.9 18:26:40 10° N 18:32:58 81° E 18:37:05 23° SSE
ERS-1 Rocket 4.3 18:34:08 24° NE 18:34:08 24° NE 18:37:30 10° NNE
Terra 3.6 18:35:11 18° NE 18:35:11 18° NE 18:37:21 10° NNE
Cosmos 1570 Rocket 4.1 18:28:51 10° SSW 18:34:08 77° WNW 18:39:25 10° NNE
Cosmos 2298 Rocket 4.4 18:30:33 10° N 18:35:35 42° ENE 18:35:57 41° ENE
Cosmos 2150 Rocket 4.4 18:32:25 10° N 18:37:19 42° ENE 18:37:30 42° ENE
BlueWalker 3 3.0 18:34:07 10° WNW 18:37:33 34° SW 18:37:58 33° SSW
USA 32 4.1 18:33:13 10° N 18:38:22 55° E 18:38:54 52° ESE
Cosmos 2026 Rocket 4.1 18:34:25 10° N 18:40:25 48° ENE 18:41:19 45° ESE
Cosmos 1092 Rocket 4.2 18:34:42 10° N 18:40:50 48° ENE 18:41:49 45° ESE
Cosmos 836 Rocket 4.4 18:39:32 10° SSW 18:44:48 86° ESE 18:50:08 10° NNE
Cosmos 1315 Rocket 2.9 18:45:40 10° N 18:49:14 70° NNW 18:49:14 70° NNW
SL-16 R/B 3.4 18:53:31 27° NE 18:53:31 27° NE 18:56:13 10° NE
Cosmos 1634 Rocket 4.1 18:51:55 53° ESE 18:52:14 53° E 18:58:21 10° NNE
Cosmos 1125 Rocket 3.6 18:48:55 10° NNW 18:54:05 69° WSW 18:55:25 48° S
USA 59 Rocket 1.9 18:53:39 10° WNW 18:57:36 31° WSW 19:00:06 22° SSW
Okean O Rocket 1.9 18:57:42 60° SW 18:58:08 64° WSW 19:02:32 10° NNW
Cosmos 773 Rocket 4.1 19:05:45 66° NE 19:05:45 66° NE 19:10:18 10° NNE
CZ-4 R/B 4.1 19:05:27 10° SW 19:07:32 14° W 19:09:40 10° WNW
Cosmos 2034 Rocket 4.4 19:03:42 10° SSW 19:09:48 59° W 19:15:55 10° N
Cosmos 2278 Rocket 3.5 19:05:00 10° NW 19:10:05 35° WSW 19:12:39 24° SSW
CZ-4B R/B 4.5 19:06:53 17° SSW 19:10:31 36° W 19:15:29 10° NNW
Resurs 01 Rocket 3.7 19:10:19 15° SW 19:12:53 24° W 19:16:28 10° NW
MetOp-B 4.1 19:14:53 79° N 19:14:53 79° N 19:19:56 10° NNW
Cosmos 1627 Rocket 4.3 19:09:44 10° N 19:16:02 90° WNW 19:16:37 75° S
NOSS 3-3 (C) 4.3 19:10:51 10° SW 19:16:03 55° NW 19:22:09 10° NNE
SPOT 5 3.5 19:22:14 50° NW 19:22:14 50° NW 19:25:39 10° NNW
Meteor 1-23 Rocket 4.4 19:15:35 10° NNW 19:21:10 66° W 19:21:42 63° SW
Okean-O 3.6 19:23:05 44° NW 19:23:05 44° NW 19:26:18 10° NNW
ISS -0.5 19:29:52 10° WNW 19:30:43 14° NW 19:30:43 14° NW
Cosmos 2279 Rocket 4.4 19:35:28 51° NNE 19:35:28 51° NNE 19:40:04 10° N
Cosmos 2237 Rocket 4.4 19:30:19 10° WSW 19:34:47 24° NW 19:39:16 10° N
Cosmos 1607 4.2 19:31:16 10° SW 19:37:41 68° NW 19:44:08 10° NNE
MOS 1 Rocket 4.5 19:45:39 45° NW 19:45:39 45° NW 19:49:34 10° NNW
ATLAS CENTAUR R/B 4.5 19:52:04 10° NW 19:52:51 11° NW 19:53:39 10° NNW
NOSS 3-4 (A) 4.1 19:51:04 10° NNW 19:57:11 63° NNE 19:57:11 63° NNE
NOSS 3-4 (C) 4.1 19:51:11 10° NNW 19:57:18 62° NNE 19:57:18 62° NNE
Cosmos 2369 Rocket 3.5 20:01:49 10° NNW 20:05:11 37° NNW 20:05:11 37° NNW
Terra 4.0 20:13:52 22° NW 20:13:52 22° NW 20:15:45 10° NNW
ACS3 Solar Sail 3.8 20:09:36 17° WSW 20:12:13 22° W 20:16:59 10° NW
Cosmos 1943 Rocket 4.5 20:10:46 10° WNW 20:13:41 15° W 20:14:06 15° WSW
SL-16 R/B 4.1 20:35:17 26° NW 20:35:17 26° NW 20:39:49 10° N
